SCP
0 1 2 2 3 3 3 2 2 1 1 1 1 1 1 0 0 0 0 0 0 0 0 0 0 0 0 0 0 0 0 0 0 0 0 0 0 0 0 0 0 0 0
1 1 2 3 3 3 3 2 2 1 1 1 1 1 1 0 0 0 0 0 0 0 0 0 0 0 0 0 0 0 0 0 0 0 0 0 0 0 0 0 0 0 0
1 1 2 3 3 3 3 3 2 2 1 1 1 1 1 0 0 0 0 0 0 0 0 0 0 0 0 0 0 0 0 0 0 0 0 0 0 0 0 0 0 0 0
1 1 2 3 4 4 3 3 2 2 1 1 1 1 1 1 0 0 0 0 0 0 0 0 0 0 0 0 0 0 0 0 0 0 0 0 0 0 0 0 0 0 0
1 1 2 3 4 4 3 3 2 2 1 1 1 1 1 0 0 0 0 0 0 0 0 0 0 0 0 0 0 0 0 0 0 0 0 0 0 0 0 0 0 0 0
1 1 2 3 4 4 3 3 2 2 2 1 1 1 1 0 0 0 0 0 0 0 0 0 0 0 0 0 0 0 0 0 0 0 0 0 0 0 0 0 0 0 0
1 2 2 3 3 4 3 3 3 2 2 2 1 1 1 0 0 0 0 0 0 0 0 0 0 0 0 0 0 0 0 0 0 0 0 0 0 0 0 0 0 0 0
2 2 2 3 3 3 3 3 3 3 2 2 1 1 1 0 0 0 0 0 0 0 0 0 0 0 0 0 0 0 0 0 0 0 0 0 0 0 0 0 0 0 0
2 2 2 2 3 3 3 3 3 2 2 1 1 1 1 0 0 0 0 0 0 0 0 0 0 0 0 0 0 0 0 0 0 0 0 0 0 0 0 0 0 0 0
2 2 2 2 2 2 3 2 2 2 2 1 1 1 0 0 0 0 0 0 0 0 0 0 0 0 0 0 0 0 0 0 0 0 0 0 0 0 0 0 0 0 0
1 2 2 2 2 2 2 2 2 2 1 1 1 0 0 0 0 0 0 0 0 0 0 0 0 0 0 0 0 0 0 0 0 0 0 0 0 0 0 0 0 0 0
2 2 2 2 2 2 2 2 2 2 1 1 0 0 0 0 0 0 0 0 0 0 0 0 0 0 0 0 0 0 0 0 0 0 0 0 0 0 0 0 0 0 0
2 2 2 2 2 2 2 2 2 1 1 1 0 0 0 0 0 0 0 0 0 0 0 0 0 0 0 0 0 0 0 0 0 0 0 0 0 0 0 0 0 0 0
3 3 2 2 2 2 2 2 2 1 1 0 0 0 0 0 0 0 0 0 0 0 0 0 0 0 0 0 0 0 0 0 0 0 0 0 0 0 0 0 0 0 0
3 3 3 3 2 2 2 2 1 1 1 0 0 0 0 0 0 0 0 0 0 0 0 0 0 0 0 0 0 0 0 0 0 0 0 0 0 0 0 0 0 0 0
3 3 3 2 2 2 1 1 1 1 0 0 0 0 0 0 0 0 0 0 0 0 0 0 0 0 0 0 0 0 0 0 0 0 0 0 0 0 0 0 0 0 0
3 3 3 2 2 1 1 1 1 1 0 0 0 0 0 0 0 0 0 0 0 0 0 0 0 0 0 0 0 0 0 0 0 0 0 0 0 0 0 0 0 0 0
3 3 3 2 1 1 1 1 1 0 0 0 0 0 0 0 0 0 0 0 0 0 0 0 0 0 0 0 0 0 0 0 0 0 0 0 0 0 0 0 0 0 0
3 3 3 2 1 1 1 0 0 0 0 0 0 0 0 0 0 0 0 0 0 0 0 0 0 0 0 0 0 0 0 0 0 0 0 0 0 0 0 0 0 0 0
3 3 3 2 2 1 1 0 0 0 0 0 0 0 0 0 0 0 0 0 0 0 0 0 0 0 0 0 0 0 0 0 0 0 0 0 0 0 0 0 0 0 0
3 3 3 3 2 1 1 0 0 0 0 0 0 0 0 0 0 0 0 0 0 0 0 0 0 0 0 0 0 0 0 0 0 0 0 0 0 0 0 0 0 0 0
2 3 3 3 2 2 1 1 0 0 0 0 0 0 0 0 0 0 0 0 0 0 0 0 0 0 0 0 0 0 0 0 0 0 0 0 0 0 0 0 0 0 0
2 3 3 3 2 2 1 1 1 0 0 0 0 0 0 0 0 0 0 0 0 0 0 0 0 0 0 0 0 0 0 0 0 0 0 0 0 0 0 0 0 0 0
3 3 4 3 3 2 2 1 1 1 0 0 0 0 0 0 0 0 0 0 0 0 0 0 0 0 0 0 0 0 0 0 0 0 0 0 0 0 0 0 0 0 0
3 3 4 4 3 3 2 2 1 1 0 0 0 0 0 0 0 0 0 0 0 0 0 0 0 0 0 0 0 0 0 0 0 0 0 0 0 0 0 0 0 0 0
3 4 4 4 3 3 2 2 1 1 0 1 1 0 0 0 0 0 0 0 0 0 0 0 0 0 0 0 0 0 0 0 0 0 0 0 0 0 0 0 0 0 0
Wind_Speed
10 13 23 23 22 22 21 21 21 20 19 19 18 18 18 17 17 17 17 16 17 17 17 17 16 17 17 17 17 17 17 17 17 16 16 16 15 15 15 14 13 8 15
15 16 23 23 23 22 22 21 20 20 19 19 18 18 18 17 17 17 17 16 17 17 17 16 17 16 16 16 16 16 16 16 16 16 15 13 14 14 14 14 13 9 14
18 17 21 23 23 23 22 21 20 20 19 19 18 18 18 18 17 17 17 16 16 16 16 16 16 16 16 15 15 15 15 16 16 15 13 6 7 13 14 13 13 14 13
18 16 18 23 23 23 23 22 21 20 19 19 19 18 18 18 17 17 17 17 16 16 16 16 15 15 15 14 14 15 16 16 15 13 6 5 5 12 13 13 13 13 13
16 15 18 23 23 23 23 22 21 20 20 19 19 19 18 18 17 17 17 16 16 16 15 15 15 14 14 13 14 15 16 16 15 10 5 5 4 11 13 13 13 14 14
15 13 18 23 24 23 23 22 21 21 20 20 19 19 18 18 17 17 17 16 16 16 15 15 14 13 13 13 14 15 15 15 11 6 5 4 3 10 13 13 13 14 14
15 13 17 23 24 23 22 22 22 21 21 20 19 19 19 18 17 17 16 16 16 15 15 14 13 13 12 12 13 14 14 14 7 5 5 4 4 11 12 13 13 13 14
16 14 16 23 22 22 22 22 22 21 21 20 20 19 19 18 18 17 16 15 15 15 14 13 13 12 12 12 12 13 13 11 8 5 4 3 8 12 13 13 13 13 13
14 13 12 14 17 20 21 21 21 21 20 20 20 19 19 18 18 17 16 15 14 14 14 13 12 12 11 11 11 12 13 12 6 3 4 3 9 12 12 13 13 13 13
12 11 10 11 11 12 14 18 19 19 19 19 18 17 16 16 17 16 14 14 14 14 13 12 11 11 10 10 11 12 12 9 5 4 2 3 10 11 11 11 12 12 12
13 11 11 11 11 10 10 14 15 17 17 17 15 16 13 7 8 9 10 13 14 13 12 12 11 10 8 8 9 11 8 3 4 3 2 6 9 10 11 11 11 11 11
18 15 12 12 12 11 10 9 8 8 9 9 8 10 7 6 6 7 11 12 12 12 12 11 10 8 5 3 5 7 3 3 3 2 2 7 8 9 10 10 10 10 10
19 17 15 14 13 11 8 8 5 5 6 7 9 9 7 6 5 4 3 5 6 7 4 5 4 2 2 2 2 3 3 3 2 1 2 6 7 8 9 9 9 9 9
19 18 16 15 13 11 9 8 7 6 6 6 8 10 7 5 4 4 3 3 3 3 3 3 2 2 2 2 3 4 4 3 2 1 2 6 6 7 7 7 8 8 8
19 19 18 16 15 13 10 9 9 8 7 7 7 8 8 6 6 5 4 3 4 3 3 3 3 2 2 2 3 4 4 4 3 2 2 5 5 5 6 6 6 7 7
20 19 18 18 17 14 12 10 9 8 8 7 7 8 10 7 7 6 5 4 4 4 4 4 4 3 2 2 3 4 4 4 3 3 2 2 4 4 5 5 5 5 5
20 19 19 19 18 17 14 12 10 9 9 8 8 9 10 9 9 7 6 5 5 4 4 3 3 3 3 3 3 3 3 3 3 3 2 1 1 3 3 3 3 3 3
18 19 20 18 18 17 14 12 10 9 9 8 8 8 10 10 10 8 6 6 5 4 4 4 3 3 3 3 2 2 2 2 3 3 2 2 1 1 1 2 2 1 2
19 20 20 18 19 18 15 12 10 10 10 8 8 8 10 11 11 8 7 6 6 5 4 5 3 3 3 3 2 2 1 2 2 3 3 3 2 2 1 1 1 1 1
18 19 20 18 19 16 13 10 8 9 9 8 9 9 11 10 11 9 7 7 7 5 4 4 4 3 3 3 3 2 1 0 1 2 3 3 3 3 2 1 0 1 2
17 19 20 19 18 16 13 12 12 12 11 10 9 11 12 11 11 10 7 7 7 7 7 6 4 4 2 3 3 2 2 2 1 2 2 2 3 3 3 3 2 1 2
19 20 21 21 20 19 15 13 10 9 7 7 7 10 12 12 12 10 10 8 8 6 7 7 5 4 2 3 4 2 1 3 2 1 2 3 3 2 3 4 3 3 2
19 21 20 22 21 20 16 10 8 6 5 6 9 10 12 13 13 11 11 10 9 8 8 8 7 7 5 3 3 5 4 4 2 2 2 2 3 3 3 3 4 4 4
20 20 21 22 22 20 18 15 17 14 12 12 11 9 10 12 13 12 12 11 10 8 8 8 7 5 7 5 2 2 2 4 3 1 2 2 3 3 4 3 3 3 3
19 19 19 20 21 20 20 19 19 14 11 6 7 10 10 10 12 12 12 11 11 9 9 9 8 7 6 6 4 3 2 1 2 3 3 2 2 3 3 3 3 3 3
17 17 18 19 20 21 21 20 20 18 13 12 11 12 11 8 9 12 12 12 11 9 10 9 9 9 7 6 5 4 4 4 4 3 3 3 3 3 2 2 2 2 2
Wind_Direction
170 171 165 159 154 149 147 144 139 135 132 129 126 123 121 120 118 116 112 110 107 103 100 98 97 96 95 94 92 89 86 84 82 78 75 76 77 75 72 70 64 56 61
156 166 163 159 155 152 148 144 140 137 134 132 129 127 126 125 123 119 116 113 109 106 103 101 98 98 97 96 94 89 87 86 82 76 70 67 72 73 72 69 67 65 63
153 162 160 158 155 153 149 145 142 139 137 134 132 132 130 127 126 123 119 115 111 108 105 103 100 99 99 97 92 87 88 91 85 77 65 42 55 71 72 69 66 63 62
155 159 158 158 156 152 150 147 144 141 139 137 136 135 132 129 127 124 121 116 113 110 107 105 103 102 102 98 92 88 91 92 87 76 53 35 36 68 69 66 63 61 63
155 158 159 159 157 153 150 149 146 144 142 141 139 137 135 132 129 126 123 120 116 112 110 107 105 105 104 100 93 92 94 92 87 71 49 35 29 69 69 68 65 64 64
154 156 160 160 158 155 153 152 149 147 145 143 142 140 137 134 131 128 125 122 120 117 114 111 109 107 106 100 94 94 96 94 82 63 49 33 31 72 73 71 67 63 62
153 156 161 161 159 157 155 153 151 149 148 146 145 143 139 136 132 129 127 126 124 122 118 116 113 110 109 102 95 95 97 95 84 65 48 32 58 75 75 71 67 63 60
153 156 162 162 160 158 156 154 153 151 151 149 148 146 142 138 136 134 133 131 129 126 122 119 117 114 112 104 97 96 99 95 86 69 48 34 77 79 76 71 68 65 62
152 155 160 161 160 159 158 156 155 154 153 152 151 148 144 142 142 140 139 135 133 130 127 123 120 118 114 105 97 98 102 99 90 70 51 41 81 79 76 73 69 66 63
153 157 157 157 157 157 157 157 156 156 155 155 152 147 145 146 145 144 142 140 136 133 131 128 124 121 114 103 97 101 104 95 85 71 45 71 84 82 79 75 70 66 64
161 162 159 156 156 154 155 158 156 156 157 153 149 145 140 137 137 141 144 144 143 140 137 134 131 125 113 98 97 102 99 88 87 69 44 85 86 85 82 76 71 69 67
170 170 165 161 158 156 159 156 155 155 154 147 146 142 135 132 136 140 150 150 147 143 142 140 138 126 104 73 84 93 95 98 82 70 75 92 91 89 84 79 75 71 68
171 171 169 166 162 161 158 156 154 150 149 146 146 144 139 135 137 133 139 147 141 137 128 133 123 106 102 97 90 98 112 102 88 66 79 95 97 93 87 82 76 72 69
172 174 171 168 166 164 159 161 157 155 155 156 156 151 147 145 145 145 140 139 136 131 133 126 130 133 119 117 117 114 116 116 112 92 90 97 101 97 93 86 80 76 70
175 175 174 171 170 167 162 166 164 163 164 161 159 159 155 155 159 155 153 152 154 148 150 149 149 148 141 132 127 125 128 130 129 114 89 100 100 99 99 92 84 79 72
178 177 175 175 174 170 170 171 169 168 166 164 166 167 162 161 163 162 161 162 168 166 162 158 162 158 153 134 124 126 133 138 135 130 108 100 108 110 107 98 87 78 72
181 177 177 177 176 174 173 174 172 171 169 172 173 170 169 166 167 166 166 170 177 169 159 149 152 142 132 120 120 128 133 142 145 146 136 108 87 99 114 108 98 82 69
179 178 179 179 178 177 176 175 173 174 173 176 174 174 174 172 170 167 169 176 175 162 155 152 149 138 129 127 128 134 134 137 151 158 150 147 132 102 122 143 137 94 60
182 180 180 180 179 179 176 175 173 174 177 178 176 177 178 176 173 170 172 175 168 161 160 162 151 144 140 140 138 129 135 145 161 162 167 175 177 170 175 180 167 205 293
185 182 182 181 179 177 173 171 170 175 180 180 181 181 178 178 176 171 170 172 166 161 163 160 151 142 142 145 121 89 45 171 169 177 184 184 190 190 187 185 195 266 254
187 184 184 182 180 176 177 178 179 184 184 184 185 182 180 179 177 174 173 171 171 171 171 161 147 144 138 129 99 48 353 343 257 216 195 189 203 203 194 196 200 220 264
190 188 186 185 182 182 185 183 182 175 177 179 180 183 183 181 180 180 176 176 174 168 168 167 151 144 154 156 135 121 341 323 306 255 220 212 215 207 211 211 205 210 223
193 191 189 188 186 186 181 170 156 150 150 171 185 187 188 185 183 182 181 177 177 176 179 179 168 158 165 187 162 150 161 216 262 298 251 229 220 217 225 220 217 218 217
197 194 192 189 187 186 179 176 175 180 185 190 186 185 185 186 185 184 181 181 181 182 180 183 178 166 159 176 191 181 165 156 161 252 296 269 239 230 227 227 224 223 219
195 193 193 190 189 186 184 183 184 189 191 172 169 176 183 188 188 186 184 184 185 186 185 183 179 177 173 172 172 162 154 133 145 163 241 279 285 254 232 226 224 226 224
195 191 190 189 190 188 187 187 189 190 182 172 177 182 186 188 190 191 188 189 189 188 188 186 185 184 187 180 177 170 165 166 181 173 203 232 250 270 254 235 225 223 223